{"data":{"norad_id":53731,"epoch":"2026-05-25T00:51:22.876416Z","epoch_age_seconds":72242,"freshness":"FRESH","line1":"1 53731U 22107AH  26145.03568144  .00027861  00000+0  14722-2 0  9991","line2":"2 53731  53.2145 268.2821 0004350  29.4791 330.6448 15.15306687206158","mean_motion":15.15306687,"eccentricity":0.000435,"inclination_deg":53.2145,"raan_deg":268.2821,"arg_perigee_deg":29.4791,"mean_anomaly_deg":330.6448,"bstar":0.0014722,"rev_number":20615,"period_min":95.030267625289,"perigee_km":517.04693126562,"apogee_km":523.0483519038,"semimajor_km":6898.1846415847,"source":"CELESTRAK","updated_at":"2026-05-25T13:38:17.537447Z"}}